This is the latest recevied weather packets stored in our database for station/object W8AN. If no packets are shown the sender has not sent any weather packets the latest 1 day(s).
| Time | Temp. | Humidity | Pressure | Rain* | Wind** | Luminosity | Snow |
|---|---|---|---|---|---|---|---|
| 1778027751 | 8.89° C | 85% | 4263.2 hPa | 1.27 mm | 0 m/s | 0 W/m² | - |
| 1778027448 | 8.89° C | 84% | 4263.3 hPa | 0 mm | 0 m/s | 0 W/m² | - |
| 1778027143 | 8.89° C | 84% | 4263.3 hPa | 1.78 mm | 0 m/s | 0 W/m² | - |
| 1778026840 | 8.89° C | 84% | 4263.4 hPa | 3.05 mm | 0 m/s | 0 W/m² | - |
| 1778026536 | 8.89° C | 84% | 4263.2 hPa | 3.05 mm | 0 m/s | 0 W/m² | - |
| 1778026233 | 8.89° C | 84% | 4263.4 hPa | 3.05 mm | 0 m/s | 1 W/m² | - |
| 1778025931 | 8.89° C | 84% | 4263.3 hPa | 4.83 mm | 0 m/s | 3 W/m² | - |
| 1778025628 | 8.89° C | 84% | 4263.4 hPa | 4.83 mm | 0 m/s | 4 W/m² | - |
| 1778025326 | 8.89° C | 84% | 4263.5 hPa | 3.05 mm | 0 m/s | 3 W/m² | - |
| 1778025022 | 8.89° C | 84% | 4263.3 hPa | 3.05 mm | 0 m/s | 6 W/m² | - |
| 1778024720 | 8.89° C | 83% | 4263.3 hPa | 4.32 mm | 0 m/s | 6 W/m² | - |
| 1778024416 | 9.44° C | 83% | 4263.2 hPa | 4.83 mm | 0 m/s | 4 W/m² | - |
| 1778024114 | 9.44° C | 83% | 4263.2 hPa | 1.78 mm | 0 m/s | 8 W/m² | - |
| 1778023811 | 9.44° C | 83% | 4263.4 hPa | 1.27 mm | 0 m/s | 10 W/m² | - |
| 1778023509 | 9.44° C | 83% | 4263.2 hPa | 3.05 mm | 0 m/s | 17 W/m² | - |
| 1778023206 | 9.44° C | 83% | 4263.3 hPa | 1.78 mm | 0 m/s | 18 W/m² | - |
| 1778022903 | 9.44° C | 83% | 4263.4 hPa | 3.05 mm | 0 m/s | 13 W/m² | - |
| 1778022602 | 9.44° C | 82% | 4263.3 hPa | 1.27 mm | 0 m/s | 13 W/m² | - |
| 1778022299 | 9.44° C | 82% | 4263.2 hPa | 0 mm | 0 m/s | 12 W/m² | - |
| 1778021995 | 9.44° C | 82% | 4263.2 hPa | 0 mm | 0 m/s | 18 W/m² | - |
| 1778021692 | 9.44° C | 82% | 4263 hPa | 0 mm | 0 m/s | 21 W/m² | - |
| 1778021388 | 9.44° C | 82% | 4263.2 hPa | 0 mm | 0 m/s | 16 W/m² | - |
| 1778021085 | 9.44° C | 82% | 4263 hPa | 0 mm | 0 m/s | 12 W/m² | - |
| 1778020782 | 9.44° C | 82% | 4262.8 hPa | 0 mm | 0 m/s | 31 W/m² | - |
| 1778020479 | 9.44° C | 82% | 4262.9 hPa | 0 mm | 0 m/s | 33 W/m² | - |
* Rain latest hour (hover to see other rain measurements)
** Current wind speed in m/s (hover to see current wind gust speed)